Location: Plzen
(49.7500°N, 13.3670°E)
Time: 02:31:47
(UTC+01:00)

ISS - Pass Details

Date: 07 October 2020
Orbit: 417 x 420 km, 51.6° (Epoch: 25 October)

Event Time Altitude Azimuth Distance (km) Brightness Sun altitude
Rises 19:33:55 0° 283° (WNW) 2,368 2.1 -10.9°
Reaches altitude 10° 19:36:35 10° 261° (W) 1,500 0.5 -11.3°
Maximum altitude 19:38:43 16° 221° (SW) 1,190 -1.0 -11.7°
Drops below altitude 10° 19:40:51 10° 182° (S) 1,495 -1.0 -12.0°
Enters shadow 19:43:22 - 160° (SSE) 2,307 -0.2 -12.4°
